Flag for Belarus Weather past 2 weeks in Barysaw, Belarus

Now
32 °F

Partly sunny.


Feels Like: 22 °F
Forecast: 14 / 23 °F
Wind: 15 mph from Northwest

Location: Minsk

Current Time: Dec 25, 2014 at 3:58:57 PM

Latest Report: Dec 25, 2014 at 3:30 PM


Visibility: N/A

Pressure: 29.62 "Hg

Humidity: 75%

Dew point: 25 °F

Location of BarysawLocation

Historic Weather in Barysaw — Graph

°F

Barysaw temperature yesterday

Maximum temperature yesterday: 39 °F (at 12:30 AM)
Minimum temperature yesterday: 32 °F (at 8:00 PM)
Average temperature yesterday: 36 °F

Past Weeks' High & Low Weather Summary

 TemperatureHumidityPressure
High48 °F (Dec 19, 8:30 PM)100% (Dec 10, 2:00 PM)30.24 "Hg (Dec 10, 2:00 PM)
Low28 °F (Dec 10, 5:01 PM)75% (Dec 20, 2:30 PM)29.27 "Hg (Dec 23, 12:30 AM)
Average35 °F95%29.72 "Hg
* Reported Dec 10 2:00 PM — Dec 25 2:30 PM, Barysaw, Weather by CustomWeather, © 2014

Note: Actual official high and low records may vary slightly from our data, if they occured in-between our weather recording intervals... More about our weather records

Advertising

Barysaw weather history for previous 24 hours

 ConditionsComfort  
Time TempWeatherWind HumidityBarometerVisibility
2:30 PM
Dec 25
32 °FPartly sunny.13 mph75%29.62 "HgN/A
2:00 PM32 °FPartly sunny.10 mph80%29.59 "HgN/A
1:30 PM32 °FPartly sunny.13 mph80%29.59 "HgN/A
1:00 PM32 °FPartly sunny.17 mph87%29.56 "HgN/A
12:30 PM32 °FPartly sunny.13 mph93%29.56 "HgN/A
12:03 PM32 °FSnow flurries. Partly sunny.15 mph93%29.53 "Hg5 mi
11:58 AM32 °FSnow flurries. Partly sunny.13 mph93%29.53 "Hg2 mi
11:30 AM32 °FPartly sunny.17 mph100%29.53 "HgN/A
11:04 AM36 °FHeavy snow. Dense fog.17 mph87%29.50 "Hg0 mi
10:30 AM34 °FSprinkles. Partly sunny.10 mph100%29.50 "Hg1 mi
10:00 AM36 °FPassing clouds.10 mph93%29.50 "HgN/A
9:30 AM34 °FSprinkles. Passing clouds.6 mph100%29.47 "HgN/A
9:03 AM34 °FSprinkles. Passing clouds.15 mph100%29.47 "Hg2 mi
8:58 AM34 °FSprinkles. Passing clouds.13 mph100%29.47 "Hg2 mi
8:30 AM34 °FSnow flurries. Passing clouds.8 mph100%29.47 "HgN/A
8:00 AM36 °FPassing clouds.10 mph93%29.45 "HgN/A
7:30 AM36 °FPassing clouds.13 mph87%29.45 "HgN/A
6:30 AM36 °FPassing clouds.15 mph87%29.42 "HgN/A
6:00 AM36 °FPassing clouds.15 mph87%29.42 "HgN/A
5:45 AM37 °FPassing clouds.17 mph87%29.42 "HgN/A
5:30 AM37 °FSprinkles. Passing clouds.17 mph87%29.42 "HgN/A
5:00 AM37 °FSprinkles. Passing clouds.15 mph93%29.39 "HgN/A
4:45 AM39 °FSprinkles. Passing clouds.20 mph87%29.36 "Hg5 mi
4:30 AM39 °FPassing clouds.15 mph87%29.36 "HgN/A
4:00 AM39 °FOvercast.17 mph87%29.36 "HgN/A
3:30 AM41 °FSprinkles. Passing clouds.13 mph87%29.33 "HgN/A
3:00 AM39 °FPassing clouds.10 mph93%29.33 "HgN/A
2:30 AM41 °FSprinkles. Overcast.17 mph87%29.33 "Hg3 mi
2:00 AM41 °FOvercast.10 mph100%29.33 "HgN/A
1:30 AM41 °FOvercast.8 mph100%29.36 "HgN/A
1:00 AM39 °FLight rain. Mostly cloudy.8 mph100%29.36 "Hg4 mi
12:45 AM37 °FSprinkles. Fog.6 mph100%29.39 "Hg3 mi
12:30 AM37 °FSprinkles. Mostly cloudy.6 mph100%29.39 "Hg4 mi
12:00 AM36 °FSprinkles. Fog.3 mph100%29.39 "Hg2 mi
11:30 PM
Dec 24
36 °FDrizzle. Low clouds.6 mph100%29.42 "Hg3 mi
11:02 PM34 °FSprinkles. Low clouds.6 mph100%29.42 "Hg2 mi
10:30 PM34 °FLight rain. Low clouds.8 mph100%29.45 "Hg3 mi
10:00 PM34 °FLight rain. Low clouds.8 mph100%29.45 "Hg3 mi
9:30 PM32 °FSnow flurries. Low clouds.8 mph100%29.47 "Hg3 mi
9:00 PM32 °FSnow showers. Low clouds.6 mph100%29.50 "Hg1 mi
8:30 PM32 °FSnow. Low clouds.6 mph100%29.53 "Hg1 mi
8:00 PM32 °FSnow. Low clouds.6 mph100%29.53 "Hg1 mi
7:30 PM34 °FSnow showers. Low clouds.6 mph93%29.56 "Hg1 mi
7:00 PM36 °FLight rain. Low clouds.6 mph93%29.56 "Hg6 mi
6:58 PM36 °FLight rain. Low clouds.8 mph93%29.56 "HgN/A
6:30 PM36 °FPassing clouds.6 mph93%29.59 "HgN/A
6:00 PM36 °FPassing clouds.3 mph93%29.59 "HgN/A
5:30 PM36 °FPartly sunny.1 mph93%29.62 "HgN/A
5:00 PM36 °FBroken clouds.1 mph93%29.62 "HgN/A
4:30 PM37 °FOvercast.1 mph93%29.62 "HgN/A
4:00 PM37 °FLight rain. Overcast.6 mph93%29.62 "HgN/A
3:30 PM39 °FPartly sunny.No wind81%29.65 "HgN/A
3:00 PM39 °FPartly sunny.1 mph81%29.65 "HgN/A
Weather by CustomWeather, © 2014

See weather overviewHow to use our weather pages